Time,TemperatureF,DewpointF,PressureIn,WindDirection,WindDirectionDegrees,WindSpeedMPH,WindSpeedGustMPH,Humidity,HourlyPrecipIn,Conditions,Clouds,dailyrainin,SoftwareType,DateUTC
2013-02-12 00:01:00,33.0,28.0,30.29,West,275,0.0,0.0,82,0.00,,,0.01,,2013-02-12 08:01:00,
2013-02-12 00:11:00,33.0,28.0,30.29,West,275,0.0,0.0,82,0.00,,,0.01,,2013-02-12 08:11:00,
2013-02-12 00:21:00,32.0,27.0,30.29,West,275,0.0,0.0,82,0.00,,,0.01,,2013-02-12 08:21:00,
2013-02-12 00:31:00,32.0,27.0,30.29,West,275,0.0,0.0,83,0.00,,,0.01,,2013-02-12 08:31:00,
2013-02-12 00:41:00,32.0,27.0,30.29,West,275,0.0,0.0,83,0.00,,,0.01,,2013-02-12 08:41:00,
2013-02-12 00:52:00,32.0,28.0,30.29,West,275,0.0,0.0,84,0.00,,,0.01,,2013-02-12 08:52:00,
2013-02-12 01:01:00,31.0,27.0,30.30,West,275,0.0,0.0,84,0.00,,,0.01,,2013-02-12 09:01:00,
2013-02-12 01:21:00,31.0,27.0,30.30,West,275,0.0,0.0,84,0.00,,,0.01,,2013-02-12 09:21:00,
2013-02-12 01:31:00,31.0,27.0,30.30,West,275,0.0,0.0,85,0.00,,,0.01,,2013-02-12 09:31:00,
2013-02-12 01:41:00,31.0,27.0,30.30,West,275,0.0,0.0,85,0.00,,,0.01,,2013-02-12 09:41:00,
2013-02-12 01:52:00,31.0,27.0,30.30,West,275,0.0,0.0,85,0.00,,,0.01,,2013-02-12 09:52:00,
2013-02-12 02:01:00,31.0,27.0,30.29,West,275,0.0,0.0,86,0.00,,,0.01,,2013-02-12 10:01:00,
2013-02-12 02:11:00,30.0,26.0,30.30,West,275,0.0,0.0,86,0.00,,,0.01,,2013-02-12 10:11:00,
2013-02-12 02:21:00,30.0,26.0,30.30,West,275,0.0,0.0,86,0.00,,,0.01,,2013-02-12 10:21:00,
2013-02-12 02:31:00,30.0,26.0,30.30,West,275,0.0,0.0,86,0.00,,,0.01,,2013-02-12 10:31:00,
2013-02-12 02:43:00,30.0,26.0,30.30,West,275,0.0,0.0,86,0.00,,,0.01,,2013-02-12 10:43:00,
2013-02-12 02:52:00,30.0,26.0,30.30,West,275,0.0,0.0,86,0.00,,,0.01,,2013-02-12 10:52:00,
2013-02-12 03:01:00,30.0,27.0,30.30,West,275,0.0,0.0,87,0.00,,,0.01,,2013-02-12 11:01:00,
2013-02-12 03:11:00,30.0,27.0,30.30,West,275,0.0,0.0,87,0.00,,,0.01,,2013-02-12 11:11:00,
2013-02-12 03:21:00,29.0,26.0,30.29,West,275,0.0,0.0,87,0.00,,,0.01,,2013-02-12 11:21:00,
2013-02-12 03:31:00,29.0,26.0,30.29,West,275,0.0,0.0,87,0.00,,,0.01,,2013-02-12 11:31:00,
2013-02-12 03:41:00,29.0,26.0,30.29,West,275,0.0,0.0,87,0.00,,,0.01,,2013-02-12 11:41:00,
2013-02-12 03:52:00,29.0,26.0,30.30,West,275,0.0,0.0,88,0.00,,,0.01,,2013-02-12 11:52:00,
2013-02-12 04:01:00,29.0,26.0,30.30,West,275,0.0,0.0,88,0.00,,,0.01,,2013-02-12 12:01:00,
2013-02-12 04:11:00,29.0,26.0,30.30,West,275,0.0,0.0,88,0.00,,,0.01,,2013-02-12 12:11:00,
2013-02-12 04:21:00,29.0,26.0,30.30,West,275,0.0,0.0,88,0.00,,,0.01,,2013-02-12 12:21:00,
2013-02-12 04:32:00,29.0,26.0,30.31,West,275,0.0,0.0,88,0.00,,,0.01,,2013-02-12 12:32:00,
2013-02-12 04:41:00,29.0,26.0,30.31,West,275,0.0,0.0,88,0.00,,,0.01,,2013-02-12 12:41:00,
2013-02-12 04:52:00,29.0,26.0,30.31,West,275,0.0,0.0,88,0.00,,,0.01,,2013-02-12 12:52:00,
2013-02-12 05:01:00,28.0,25.0,30.31,West,275,0.0,0.0,88,0.00,,,0.01,,2013-02-12 13:01:00,
2013-02-12 05:22:00,28.0,25.0,30.32,West,275,0.0,0.0,88,0.00,,,0.01,,2013-02-12 13:22:00,
2013-02-12 05:31:00,28.0,25.0,30.32,West,275,0.0,0.0,88,0.00,,,0.01,,2013-02-12 13:31:00,
2013-02-12 05:42:00,28.0,25.0,30.32,West,275,0.0,0.0,88,0.00,,,0.01,,2013-02-12 13:42:00,
2013-02-12 05:52:00,27.0,24.0,30.33,West,275,0.0,0.0,89,0.00,,,0.01,,2013-02-12 13:52:00,
2013-02-12 06:01:00,27.0,24.0,30.33,West,275,0.0,0.0,89,0.00,,,0.01,,2013-02-12 14:01:00,
2013-02-12 06:21:00,27.0,24.0,30.33,West,275,0.0,0.0,89,0.00,,,0.01,,2013-02-12 14:21:00,
2013-02-12 06:31:00,27.0,24.0,30.33,West,275,0.0,1.0,89,0.00,,,0.01,,2013-02-12 14:31:00,
2013-02-12 06:41:00,27.0,24.0,30.33,West,275,0.0,1.0,89,0.00,,,0.01,,2013-02-12 14:41:00,
2013-02-12 06:52:00,27.0,24.0,30.34,West,275,0.0,0.0,89,0.00,,,0.01,,2013-02-12 14:52:00,
2013-02-12 07:01:00,27.0,24.0,30.34,West,275,0.0,0.0,89,0.00,,,0.01,,2013-02-12 15:01:00,
2013-02-12 07:11:00,27.0,24.0,30.35,WNW,283,0.0,1.0,90,0.00,,,0.01,,2013-02-12 15:11:00,
2013-02-12 07:21:00,27.0,24.0,30.35,WNW,283,0.0,1.0,90,0.00,,,0.01,,2013-02-12 15:21:00,
2013-02-12 07:32:00,27.0,24.0,30.35,WNW,283,0.0,1.0,90,0.00,,,0.01,,2013-02-12 15:32:00,
2013-02-12 07:41:00,27.0,24.0,30.35,WNW,283,0.0,1.0,90,0.00,,,0.01,,2013-02-12 15:41:00,
2013-02-12 07:52:00,28.0,26.0,30.36,WNW,283,0.0,0.0,91,0.00,,,0.01,,2013-02-12 15:52:00,
2013-02-12 08:01:00,29.0,27.0,30.36,WNW,283,0.0,1.0,91,0.00,,,0.01,,2013-02-12 16:01:00,
2013-02-12 08:11:00,29.0,27.0,30.36,WNW,283,0.0,1.0,91,0.00,,,0.01,,2013-02-12 16:11:00,
2013-02-12 08:22:00,32.0,29.0,30.37,WNW,283,0.0,0.0,88,0.00,,,0.01,,2013-02-12 16:22:00,
2013-02-12 08:31:00,34.0,30.0,30.37,WNW,283,0.0,0.0,85,0.00,,,0.00,,2013-02-12 16:31:00,
2013-02-12 08:41:00,34.0,30.0,30.37,WNW,283,0.0,0.0,85,0.00,,,0.00,,2013-02-12 16:41:00,
2013-02-12 08:52:00,40.0,31.0,30.38,SE,134,0.0,1.0,70,0.00,,,0.00,,2013-02-12 16:52:00,
2013-02-12 09:01:00,42.0,32.0,30.38,SE,134,0.0,1.0,67,0.00,,,0.00,,2013-02-12 17:01:00,
2013-02-12 09:11:00,42.0,32.0,30.38,SE,134,0.0,1.0,67,0.00,,,0.00,,2013-02-12 17:11:00,
2013-02-12 09:21:00,45.0,31.0,30.39,SE,134,0.0,1.0,58,0.00,,,0.00,,2013-02-12 17:21:00,
2013-02-12 09:31:00,47.0,30.0,30.39,SE,134,0.0,1.0,51,0.00,,,0.00,,2013-02-12 17:31:00,
2013-02-12 09:41:00,47.0,30.0,30.39,SE,134,0.0,1.0,51,0.00,,,0.00,,2013-02-12 17:41:00,
2013-02-12 09:52:00,50.0,32.0,30.38,ESE,119,0.0,2.0,50,0.00,,,0.00,,2013-02-12 17:52:00,
2013-02-12 10:01:00,52.0,30.0,30.38,ESE,107,0.0,2.0,42,0.00,,,0.00,,2013-02-12 18:01:00,
2013-02-12 10:11:00,52.0,30.0,30.38,ESE,107,0.0,2.0,42,0.00,,,0.00,,2013-02-12 18:11:00,
2013-02-12 10:22:00,55.0,30.0,30.38,East,94,0.0,2.0,38,0.00,,,0.00,,2013-02-12 18:22:00,
2013-02-12 10:31:00,56.0,27.0,30.38,East,100,0.0,2.0,33,0.00,,,0.00,,2013-02-12 18:31:00,
2013-02-12 10:41:00,56.0,27.0,30.38,East,100,0.0,2.0,33,0.00,,,0.00,,2013-02-12 18:41:00,
2013-02-12 10:52:00,58.0,25.0,30.38,East,98,0.0,2.0,28,0.00,,,0.00,,2013-02-12 18:52:00,
2013-02-12 11:01:00,59.0,25.0,30.38,ESE,108,1.0,3.0,27,0.00,,,0.00,,2013-02-12 19:01:00,
2013-02-12 11:11:00,59.0,25.0,30.38,ESE,108,1.0,3.0,27,0.00,,,0.00,,2013-02-12 19:11:00,
2013-02-12 11:21:00,59.0,24.0,30.37,ENE,76,0.0,3.0,26,0.00,,,0.00,,2013-02-12 19:21:00,
2013-02-12 11:31:00,60.0,25.0,30.37,NNE,26,0.0,2.0,26,0.00,,,0.00,,2013-02-12 19:31:00,
2013-02-12 11:41:00,60.0,25.0,30.37,NNE,26,0.0,2.0,26,0.00,,,0.00,,2013-02-12 19:41:00,
2013-02-12 11:52:00,62.0,26.0,30.35,WSW,254,2.0,7.0,25,0.00,,,0.00,,2013-02-12 19:52:00,
2013-02-12 12:01:00,63.0,26.0,30.35,West,278,2.0,5.0,24,0.00,,,0.00,,2013-02-12 20:01:00,
2013-02-12 12:11:00,63.0,26.0,30.35,West,278,2.0,5.0,24,0.00,,,0.00,,2013-02-12 20:11:00,
2013-02-12 12:21:00,63.0,27.0,30.35,North,355,1.0,5.0,25,0.00,,,0.00,,2013-02-12 20:21:00,
2013-02-12 12:31:00,64.0,29.0,30.34,North,355,2.0,5.0,27,0.00,,,0.00,,2013-02-12 20:31:00,
2013-02-12 12:41:00,64.0,29.0,30.34,North,355,2.0,5.0,27,0.00,,,0.00,,2013-02-12 20:41:00,
2013-02-12 12:52:00,64.0,29.0,30.33,NNW,337,1.0,7.0,27,0.00,,,0.00,,2013-02-12 20:52:00,
2013-02-12 13:01:00,64.0,27.0,30.32,WSW,248,3.0,9.0,25,0.00,,,0.00,,2013-02-12 21:01:00,
2013-02-12 13:11:00,64.0,27.0,30.32,WSW,248,3.0,9.0,25,0.00,,,0.00,,2013-02-12 21:11:00,
2013-02-12 13:21:00,64.0,27.0,30.32,NNW,336,1.0,10.0,25,0.00,,,0.00,,2013-02-12 21:21:00,
2013-02-12 13:31:00,64.0,30.0,30.31,NW,322,1.0,10.0,28,0.00,,,0.00,,2013-02-12 21:31:00,
2013-02-12 13:41:00,64.0,28.0,30.31,WSW,255,1.0,10.0,26,0.00,,,0.00,,2013-02-12 21:41:00,
2013-02-12 13:51:00,64.0,28.0,30.31,WSW,255,1.0,10.0,26,0.00,,,0.00,,2013-02-12 21:51:00,
2013-02-12 14:01:00,64.0,29.0,30.30,WNW,301,3.0,7.0,27,0.00,,,0.00,,2013-02-12 22:01:00,
2013-02-12 14:12:00,64.0,29.0,30.30,WNW,301,3.0,7.0,27,0.00,,,0.00,,2013-02-12 22:12:00,
2013-02-12 14:21:00,64.0,30.0,30.30,NW,309,0.0,6.0,28,0.00,,,0.00,,2013-02-12 22:21:00,
2013-02-12 14:31:00,64.0,31.0,30.30,WSW,245,4.0,8.0,29,0.00,,,0.00,,2013-02-12 22:31:00,
2013-02-12 14:41:00,64.0,31.0,30.30,WSW,245,4.0,8.0,29,0.00,,,0.00,,2013-02-12 22:41:00,
2013-02-12 14:52:00,63.0,29.0,30.29,WNW,298,1.0,11.0,28,0.00,,,0.00,,2013-02-12 22:52:00,
2013-02-12 15:01:00,63.0,29.0,30.29,WNW,282,2.0,11.0,28,0.00,,,0.00,,2013-02-12 23:01:00,
2013-02-12 15:11:00,62.0,31.0,30.29,WSW,238,2.0,4.0,31,0.00,,,0.00,,2013-02-12 23:11:00,
2013-02-12 15:21:00,62.0,31.0,30.29,WSW,238,2.0,4.0,31,0.00,,,0.00,,2013-02-12 23:21:00,
2013-02-12 15:31:00,62.0,31.0,30.29,WNW,301,5.0,10.0,31,0.00,,,0.00,,2013-02-12 23:31:00,
2013-02-12 15:41:00,62.0,31.0,30.29,WNW,301,5.0,10.0,31,0.00,,,0.00,,2013-02-12 23:41:00,
2013-02-12 15:52:00,60.0,32.0,30.29,West,264,2.0,7.0,35,0.00,,,0.00,,2013-02-12 23:52:00,
2013-02-12 16:02:00,59.0,33.0,30.29,WNW,297,4.0,10.0,37,0.00,,,0.00,,2013-02-13 00:02:00,
2013-02-12 16:11:00,59.0,33.0,30.29,WNW,297,4.0,10.0,37,0.00,,,0.00,,2013-02-13 00:11:00,
2013-02-12 16:21:00,57.0,32.0,30.29,West,276,2.0,11.0,39,0.00,,,0.00,,2013-02-13 00:21:00,
2013-02-12 16:32:00,56.0,31.0,30.28,West,265,3.0,13.0,38,0.00,,,0.00,,2013-02-13 00:32:00,
2013-02-12 16:42:00,56.0,31.0,30.28,West,265,3.0,13.0,38,0.00,,,0.00,,2013-02-13 00:42:00,
2013-02-12 16:52:00,55.0,30.0,30.28,SSW,204,4.0,16.0,38,0.00,,,0.00,,2013-02-13 00:52:00,
2013-02-12 17:01:00,55.0,31.0,30.28,WNW,294,2.0,12.0,39,0.00,,,0.00,,2013-02-13 01:01:00,
2013-02-12 17:11:00,55.0,31.0,30.28,WNW,294,2.0,12.0,39,0.00,,,0.00,,2013-02-13 01:11:00,
2013-02-12 17:21:00,54.0,29.0,30.28,WSW,242,2.0,9.0,38,0.00,,,0.00,,2013-02-13 01:21:00,
2013-02-12 17:31:00,54.0,29.0,30.28,NW,325,0.0,12.0,38,0.00,,,0.00,,2013-02-13 01:31:00,
2013-02-12 17:42:00,54.0,29.0,30.28,NW,325,0.0,12.0,38,0.00,,,0.00,,2013-02-13 01:42:00,
2013-02-12 17:52:00,53.0,29.0,30.29,West,272,1.0,5.0,39,0.00,,,0.00,,2013-02-13 01:52:00,
2013-02-12 18:01:00,52.0,28.0,30.29,West,273,0.0,5.0,39,0.00,,,0.00,,2013-02-13 02:01:00,
2013-02-12 18:11:00,52.0,28.0,30.29,West,273,0.0,5.0,39,0.00,,,0.00,,2013-02-13 02:11:00,
2013-02-12 18:21:00,51.0,28.0,30.29,West,274,0.0,0.0,40,0.00,,,0.00,,2013-02-13 02:21:00,
2013-02-12 18:31:00,49.0,25.0,30.29,West,274,0.0,1.0,39,0.00,,,0.00,,2013-02-13 02:31:00,
2013-02-12 18:41:00,49.0,25.0,30.29,West,274,0.0,1.0,39,0.00,,,0.00,,2013-02-13 02:41:00,
2013-02-12 18:52:00,48.0,27.0,30.30,West,274,0.0,0.0,43,0.00,,,0.00,,2013-02-13 02:52:00,
2013-02-12 19:01:00,47.0,26.0,30.30,West,274,0.0,0.0,44,0.00,,,0.00,,2013-02-13 03:01:00,
2013-02-12 19:11:00,45.0,26.0,30.31,West,274,0.0,0.0,47,0.00,,,0.00,,2013-02-13 03:11:00,
2013-02-12 19:21:00,45.0,26.0,30.31,West,274,0.0,0.0,47,0.00,,,0.00,,2013-02-13 03:21:00,
2013-02-12 19:31:00,45.0,27.0,30.31,West,274,0.0,0.0,49,0.00,,,0.00,,2013-02-13 03:31:00,
2013-02-12 19:41:00,45.0,27.0,30.31,West,274,0.0,0.0,49,0.00,,,0.00,,2013-02-13 03:41:00,
2013-02-12 19:52:00,43.0,26.0,30.31,West,274,0.0,0.0,51,0.00,,,0.00,,2013-02-13 03:52:00,
2013-02-12 20:01:00,42.0,26.0,30.32,West,274,0.0,0.0,52,0.00,,,0.00,,2013-02-13 04:01:00,
2013-02-12 20:11:00,42.0,26.0,30.32,West,274,0.0,0.0,52,0.00,,,0.00,,2013-02-13 04:11:00,
2013-02-12 20:21:00,41.0,26.0,30.32,West,274,0.0,0.0,54,0.00,,,0.00,,2013-02-13 04:21:00,
2013-02-12 20:31:00,41.0,26.0,30.32,West,274,0.0,0.0,55,0.00,,,0.00,,2013-02-13 04:31:00,
2013-02-12 20:41:00,41.0,26.0,30.32,West,274,0.0,0.0,55,0.00,,,0.00,,2013-02-13 04:41:00,
2013-02-12 20:52:00,40.0,26.0,30.32,West,274,0.0,0.0,58,0.00,,,0.00,,2013-02-13 04:52:00,
2013-02-12 21:01:00,39.0,26.0,30.32,West,274,0.0,0.0,59,0.00,,,0.00,,2013-02-13 05:01:00,
2013-02-12 21:22:00,39.0,27.0,30.33,West,274,0.0,0.0,61,0.00,,,0.00,,2013-02-13 05:22:00,
2013-02-12 21:31:00,38.0,26.0,30.32,West,274,0.0,1.0,62,0.00,,,0.00,,2013-02-13 05:31:00,
2013-02-12 21:41:00,38.0,26.0,30.32,West,274,0.0,1.0,62,0.00,,,0.00,,2013-02-13 05:41:00,
2013-02-12 21:52:00,38.0,27.0,30.33,West,274,0.0,1.0,64,0.00,,,0.00,,2013-02-13 05:52:00,
2013-02-12 22:01:00,38.0,27.0,30.33,West,274,0.0,0.0,65,0.00,,,0.00,,2013-02-13 06:01:00,
2013-02-12 22:11:00,37.0,27.0,30.33,West,274,0.0,0.0,67,0.00,,,0.00,,2013-02-13 06:11:00,
2013-02-12 22:21:00,37.0,27.0,30.33,West,274,0.0,0.0,67,0.00,,,0.00,,2013-02-13 06:21:00,
2013-02-12 22:31:00,37.0,27.0,30.33,West,274,0.0,0.0,68,0.00,,,0.00,,2013-02-13 06:31:00,
2013-02-12 22:41:00,37.0,27.0,30.33,West,274,0.0,0.0,68,0.00,,,0.00,,2013-02-13 06:41:00,
2013-02-12 22:52:00,36.0,27.0,30.32,West,274,0.0,0.0,70,0.00,,,0.00,,2013-02-13 06:52:00,
2013-02-12 23:01:00,36.0,27.0,30.32,West,274,0.0,0.0,70,0.00,,,0.00,,2013-02-13 07:01:00,
2013-02-12 23:11:00,35.0,27.0,30.32,West,274,0.0,0.0,71,0.00,,,0.00,,2013-02-13 07:11:00,
2013-02-12 23:21:00,35.0,27.0,30.32,West,274,0.0,0.0,71,0.00,,,0.00,,2013-02-13 07:21:00,
2013-02-12 23:31:00,35.0,27.0,30.32,West,274,0.0,0.0,72,0.00,,,0.00,,2013-02-13 07:31:00,
2013-02-12 23:41:00,35.0,27.0,30.32,West,274,0.0,0.0,72,0.00,,,0.00,,2013-02-13 07:41:00,
2013-02-12 23:52:00,35.0,28.0,30.32,West,274,0.0,0.0,74,0.00,,,0.00,,2013-02-13 07:52:00,